This is the latest recevied weather packets stored in our database for station/object KC0FGX-1. If no packets are shown the sender has not sent any weather packets the latest 10 day(s).
| Time | Temp. | Humidity | Pressure | Rain* | Wind** | Luminosity | Snow |
|---|---|---|---|---|---|---|---|
| 1777744956 | 13.33° C | 38% | 1018.8 hPa | 0 mm | - | - | - |
| 1777743955 | 13.33° C | 40% | 1019.1 hPa | 0 mm | - | - | - |
| 1777742956 | 13.33° C | 43% | 1019.2 hPa | 0 mm | - | - | - |
| 1777741955 | 13.33° C | 36% | 1019.2 hPa | 0 mm | - | - | - |
| 1777740995 | 12.78° C | 38% | 1019.3 hPa | 0 mm | - | - | - |
| 1777740035 | 13.33° C | 40% | 1019.4 hPa | 0 mm | - | - | - |
| 1777739075 | 13.33° C | 40% | 1019.4 hPa | 0 mm | - | - | - |
| 1777738116 | 12.78° C | 41% | 1019.3 hPa | 0 mm | - | - | - |
| 1777737635 | 12.22° C | 43% | 1019.3 hPa | 0 mm | - | - | - |
| 1777737155 | 12.78° C | 43% | 1019.3 hPa | 0 mm | - | - | - |
| 1777736675 | 13.33° C | 46% | 1019.3 hPa | 0 mm | - | - | - |
| 1777736195 | 12.78° C | 42% | 1019.4 hPa | 0 mm | - | - | - |
| 1777735955 | 12.22° C | 43% | 1019.4 hPa | 0 mm | - | - | - |
| 1777735716 | 12.22° C | 47% | 1019.5 hPa | 0 mm | - | - | - |
| 1777735475 | 12.78° C | 43% | 1019.4 hPa | 0 mm | - | - | - |
| 1777735235 | 12.78° C | 44% | 1019.4 hPa | 0 mm | - | - | - |
| 1777735115 | 12.78° C | 48% | 1019.3 hPa | 0 mm | - | - | - |
| 1777734995 | 12.78° C | 45% | 1019.3 hPa | 0 mm | - | - | - |
| 1777734875 | 12.22° C | 45% | 1019.4 hPa | 0 mm | - | - | - |
| 1777734755 | 12.22° C | 51% | 1019.4 hPa | 0 mm | - | - | - |
| 1777734695 | 12.22° C | 51% | 1019.3 hPa | 0 mm | - | - | - |
| 1777734637 | 12.22° C | 51% | 1019.4 hPa | 0 mm | - | - | - |
| 1777734575 | 12.22° C | 51% | 1019.4 hPa | 0 mm | - | - | - |
| 1777732191 | 11.11° C | 64% | 1019.4 hPa | 0 mm | - | - | - |
| 1777731190 | 10.56° C | 65% | 1019.3 hPa | 0 mm | - | - | - |
* Rain latest hour (hover to see other rain measurements)
** Current wind speed in m/s (hover to see current wind gust speed)